CFG12S EDDS-EDDH

Flight info

Callsign CFG12S
Flight time 0h 56m
Altitude 37000
Route OKIBA4B/25 OKIBA N851 RIMKI Z99 LOHRE DCT MASEK DCT ELNAT/N0433F360 P605 NOLGO NOLGO6A
Aircraft A320/M-SDE3FGHIRWY/LB1

Departure

Time 2026-05-07 14:10
Airport Stuttgart Airport (EDDS)

Arrival

Time 2026-05-07 15:07
Airport Hamburg Helmut Schmidt Airport (EDDH)
Time Latitude Longitude Altitude Speed Heading
2026-05-07 13:39 48.68718 9.19264 1295 ft 0 kts 164°
2026-05-07 14:02 48.68716 9.19265 1295 ft 1 kts 163°
2026-05-07 14:02 48.68705 9.19270 1295 ft 3 kts 162°
2026-05-07 14:03 48.68667 9.19300 1295 ft 12 kts 129°
2026-05-07 14:03 48.68685 9.19464 1295 ft 18 kts 74°
2026-05-07 14:03 48.68720 9.19650 1295 ft 18 kts 73°
2026-05-07 14:03 48.68757 9.19843 1294 ft 20 kts 75°
2026-05-07 14:04 48.68837 9.20030 1289 ft 23 kts 67°
2026-05-07 14:04 48.68887 9.20281 1284 ft 27 kts 73°
2026-05-07 14:04 48.68942 9.20575 1277 ft 30 kts 74°
2026-05-07 14:04 48.68992 9.20843 1273 ft 28 kts 75°
2026-05-07 14:05 48.69025 9.21018 1269 ft 0 kts 74°
2026-05-07 14:05 48.69026 9.21022 1269 ft 0 kts 73°
2026-05-07 14:06 48.69027 9.21028 1267 ft 3 kts 73°
2026-05-07 14:06 48.69042 9.21104 1267 ft 12 kts 73°
2026-05-07 14:06 48.69074 9.21273 1260 ft 21 kts 74°
2026-05-07 14:06 48.69121 9.21516 1266 ft 27 kts 73°
2026-05-07 14:07 48.69172 9.21789 1249 ft 25 kts 74°
2026-05-07 14:07 48.69226 9.22075 1248 ft 28 kts 74°
2026-05-07 14:07 48.69284 9.22376 1248 ft 29 kts 74°
2026-05-07 14:07 48.69336 9.22653 1229 ft 25 kts 74°
2026-05-07 14:08 48.69389 9.22935 1222 ft 29 kts 74°
2026-05-07 14:08 48.69449 9.23249 1215 ft 31 kts 74°
2026-05-07 14:08 48.69505 9.23546 1208 ft 31 kts 74°
2026-05-07 14:08 48.69568 9.23876 1201 ft 33 kts 73°
2026-05-07 14:09 48.69608 9.24169 1194 ft 22 kts 113°
2026-05-07 14:09 48.69503 9.24315 1191 ft 21 kts 157°
2026-05-07 14:09 48.69389 9.24308 1191 ft 14 kts 234°
2026-05-07 14:09 48.69378 9.24253 1192 ft 4 kts 254°
2026-05-07 14:10 48.69305 9.23856 1200 ft 77 kts 255°
2026-05-07 14:10 48.69101 9.22763 1227 ft 136 kts 253°
2026-05-07 14:10 48.68809 9.21240 1549 ft 156 kts 256°
2026-05-07 14:10 48.68514 9.19658 2344 ft 155 kts 257°
2026-05-07 14:11 48.68211 9.18087 3074 ft 157 kts 256°
2026-05-07 14:11 48.67884 9.16407 3470 ft 178 kts 255°
2026-05-07 14:11 48.67510 9.14482 3827 ft 203 kts 254°
2026-05-07 14:11 48.67088 9.12307 4350 ft 225 kts 258°
2026-05-07 14:12 48.67150 9.09929 5094 ft 235 kts 292°
2026-05-07 14:12 48.68006 9.07791 5991 ft 241 kts 308°
2026-05-07 14:12 48.69346 9.06255 6893 ft 251 kts 336°
2026-05-07 14:12 48.71100 9.05471 7463 ft 271 kts 342°
2026-05-07 14:13 48.72934 9.04666 8301 ft 278 kts 341°
2026-05-07 14:13 48.74870 9.04264 9217 ft 287 kts 360°
2026-05-07 14:13 48.76842 9.04920 10113 ft 296 kts 22°
2026-05-07 14:13 48.78617 9.06707 10516 ft 322 kts 45°
2026-05-07 14:14 48.79991 9.09505 11015 ft 338 kts 54°
2026-05-07 14:14 48.81321 9.12442 11795 ft 343 kts 54°
2026-05-07 14:14 48.82695 9.15444 12602 ft 348 kts 54°
2026-05-07 14:14 48.84087 9.18467 13490 ft 350 kts 54°
2026-05-07 14:15 48.85499 9.21513 14250 ft 354 kts 53°
2026-05-07 14:15 48.86934 9.24592 14923 ft 359 kts 53°
2026-05-07 14:15 48.88423 9.27669 15609 ft 363 kts 47°
2026-05-07 14:15 48.90269 9.30297 16288 ft 365 kts 34°
2026-05-07 14:16 48.92465 9.32223 16970 ft 366 kts 20°
2026-05-07 14:16 48.94900 9.33328 17681 ft 366 kts
2026-05-07 14:16 48.97433 9.33557 18369 ft 365 kts 354°
2026-05-07 14:16 48.99986 9.33343 18990 ft 368 kts 354°
2026-05-07 14:17 49.02550 9.33121 19615 ft 371 kts 354°
2026-05-07 14:17 49.05152 9.32898 20242 ft 374 kts 354°
2026-05-07 14:17 49.07760 9.32681 20872 ft 377 kts 354°
2026-05-07 14:17 49.10353 9.32473 21494 ft 380 kts 354°
2026-05-07 14:18 49.13017 9.32266 22119 ft 383 kts 354°
2026-05-07 14:18 49.15694 9.32060 22754 ft 386 kts 354°
2026-05-07 14:18 49.18388 9.31851 23339 ft 390 kts 354°
2026-05-07 14:18 49.21116 9.31638 23874 ft 394 kts 354°
2026-05-07 14:19 49.23868 9.31422 24360 ft 397 kts 354°
2026-05-07 14:19 49.26633 9.31203 24842 ft 400 kts 354°
2026-05-07 14:19 49.29427 9.30982 25317 ft 402 kts 354°
2026-05-07 14:19 49.32229 9.30761 25786 ft 405 kts 354°
2026-05-07 14:20 49.35059 9.30583 26230 ft 409 kts 358°
2026-05-07 14:20 49.37913 9.30889 26685 ft 413 kts
2026-05-07 14:20 49.40780 9.31327 27134 ft 415 kts
2026-05-07 14:20 49.43661 9.31760 27559 ft 418 kts
2026-05-07 14:21 49.46567 9.32188 27973 ft 420 kts
2026-05-07 14:21 49.49490 9.32615 28391 ft 423 kts
2026-05-07 14:21 49.52433 9.33047 28798 ft 425 kts
2026-05-07 14:21 49.55384 9.33482 29190 ft 428 kts
2026-05-07 14:22 49.58352 9.33921 29578 ft 430 kts
2026-05-07 14:22 49.61340 9.34364 29974 ft 432 kts
2026-05-07 14:22 49.64337 9.34810 30312 ft 434 kts
2026-05-07 14:22 49.67356 9.35260 30611 ft 436 kts
2026-05-07 14:23 49.70383 9.35712 30908 ft 438 kts
2026-05-07 14:23 49.73427 9.36170 31192 ft 441 kts
2026-05-07 14:23 49.76454 9.36981 31456 ft 444 kts 12°
2026-05-07 14:23 49.79466 9.38141 31736 ft 446 kts 12°
2026-05-07 14:24 49.82439 9.39283 32104 ft 446 kts 12°
2026-05-07 14:24 49.85444 9.40435 32503 ft 445 kts 12°
2026-05-07 14:24 49.88445 9.41585 32885 ft 444 kts 12°
2026-05-07 14:24 49.91445 9.42738 33267 ft 443 kts 12°
2026-05-07 14:25 49.94440 9.43893 33656 ft 443 kts 12°
2026-05-07 14:25 49.97428 9.45053 34029 ft 443 kts 13°
2026-05-07 14:25 50.00419 9.46214 34338 ft 443 kts 12°
2026-05-07 14:25 50.03405 9.47370 34627 ft 443 kts 12°
2026-05-07 14:26 50.06409 9.48490 34887 ft 443 kts
2026-05-07 14:26 50.09468 9.49118 35126 ft 443 kts
2026-05-07 14:26 50.12543 9.49619 35367 ft 444 kts
2026-05-07 14:26 50.15617 9.50124 35609 ft 445 kts
2026-05-07 14:27 50.18661 9.50629 35849 ft 446 kts
2026-05-07 14:27 50.21741 9.51145 36084 ft 446 kts
2026-05-07 14:27 50.24841 9.51667 36320 ft 447 kts
2026-05-07 14:27 50.27934 9.52190 36546 ft 448 kts
2026-05-07 14:28 50.31038 9.52715 36766 ft 448 kts
2026-05-07 14:28 50.34142 9.53241 36975 ft 450 kts
2026-05-07 14:28 50.37249 9.53767 37045 ft 448 kts
2026-05-07 14:29 50.43432 9.54809 37048 ft 446 kts
2026-05-07 14:29 50.49612 9.55858 37058 ft 446 kts
2026-05-07 14:30 50.55787 9.56904 37052 ft 446 kts
2026-05-07 14:30 50.61952 9.57956 37057 ft 446 kts
2026-05-07 14:31 50.68121 9.59011 37057 ft 446 kts
2026-05-07 14:31 50.73255 9.59889 37059 ft 446 kts
2026-05-07 14:32 50.80417 9.61229 37058 ft 446 kts
2026-05-07 14:32 50.86570 9.62460 37056 ft 445 kts
2026-05-07 14:33 50.91719 9.63481 37052 ft 445 kts
2026-05-07 14:33 50.97875 9.64675 37051 ft 445 kts
2026-05-07 14:34 51.03982 9.65859 37052 ft 445 kts
2026-05-07 14:34 51.10131 9.67063 37052 ft 445 kts
2026-05-07 14:35 51.16285 9.68284 37055 ft 445 kts
2026-05-07 14:35 51.22441 9.69489 37061 ft 446 kts
2026-05-07 14:36 51.28617 9.70507 37059 ft 446 kts
2026-05-07 14:36 51.34804 9.71440 37061 ft 446 kts
2026-05-07 14:37 51.40986 9.72409 37075 ft 447 kts
2026-05-07 14:37 51.50261 9.73955 37068 ft 447 kts
2026-05-07 14:38 51.56435 9.75132 37072 ft 447 kts
2026-05-07 14:38 51.62609 9.76356 37073 ft 447 kts
2026-05-07 14:39 51.68786 9.77542 37076 ft 447 kts
2026-05-07 14:39 51.74956 9.78709 37076 ft 447 kts
2026-05-07 14:40 51.81143 9.79887 37083 ft 447 kts
2026-05-07 14:40 51.87286 9.81049 37073 ft 447 kts
2026-05-07 14:41 51.93470 9.82247 37074 ft 447 kts
2026-05-07 14:41 51.99665 9.83460 36764 ft 449 kts
2026-05-07 14:42 52.02755 9.84058 36213 ft 446 kts
2026-05-07 14:42 52.05818 9.84652 35686 ft 442 kts
2026-05-07 14:42 52.08861 9.85245 35143 ft 439 kts
2026-05-07 14:42 52.11887 9.85836 34591 ft 436 kts
2026-05-07 14:43 52.14891 9.86423 34036 ft 433 kts
2026-05-07 14:43 52.17869 9.87003 33450 ft 428 kts
2026-05-07 14:43 52.20804 9.87577 32928 ft 422 kts
2026-05-07 14:43 52.23705 9.88145 32398 ft 418 kts
2026-05-07 14:44 52.26548 9.89051 31868 ft 414 kts 14°
2026-05-07 14:44 52.29315 9.90274 31367 ft 410 kts 14°
2026-05-07 14:44 52.32030 9.91467 30867 ft 407 kts 14°
2026-05-07 14:44 52.34756 9.92662 30372 ft 404 kts 14°
2026-05-07 14:45 52.37461 9.93849 29833 ft 401 kts 14°
2026-05-07 14:45 52.40147 9.95031 29355 ft 396 kts 14°
2026-05-07 14:45 52.42790 9.96198 28868 ft 391 kts 14°
2026-05-07 14:45 52.45408 9.97356 28414 ft 387 kts 13°
2026-05-07 14:46 52.47996 9.98500 27966 ft 384 kts 14°
2026-05-07 14:46 52.50555 9.99633 27527 ft 380 kts 14°
2026-05-07 14:46 52.53094 10.00761 27088 ft 376 kts 14°
2026-05-07 14:46 52.55607 10.01882 26655 ft 372 kts 14°
2026-05-07 14:47 52.58094 10.02995 26223 ft 369 kts 14°
2026-05-07 14:47 52.60559 10.04099 25783 ft 366 kts 14°
2026-05-07 14:47 52.62982 10.05184 25345 ft 364 kts 14°
2026-05-07 14:47 52.65420 10.06276 24879 ft 362 kts 14°
2026-05-07 14:48 52.67849 10.07365 24414 ft 361 kts 14°
2026-05-07 14:48 52.70266 10.08447 23953 ft 359 kts 14°
2026-05-07 14:48 52.72710 10.09543 23437 ft 359 kts 14°
2026-05-07 14:48 52.75080 10.10606 22951 ft 357 kts 13°
2026-05-07 14:49 52.77481 10.11564 22489 ft 354 kts
2026-05-07 14:49 52.79921 10.11864 22025 ft 350 kts 359°
2026-05-07 14:49 52.82346 10.11935 21580 ft 348 kts 359°
2026-05-07 14:49 52.84763 10.12007 21125 ft 346 kts 359°
2026-05-07 14:50 52.87166 10.12082 20676 ft 345 kts 360°
2026-05-07 14:50 52.89560 10.12162 20235 ft 343 kts 360°
2026-05-07 14:50 52.91944 10.12242 19791 ft 342 kts 360°
2026-05-07 14:50 52.94320 10.12322 19359 ft 341 kts 360°
2026-05-07 14:51 52.96686 10.12400 18924 ft 339 kts 359°
2026-05-07 14:51 52.99043 10.12478 18491 ft 338 kts 359°
2026-05-07 14:51 53.01392 10.12555 18028 ft 337 kts
2026-05-07 14:51 53.03728 10.12633 17607 ft 334 kts 359°
2026-05-07 14:52 53.06044 10.12714 17159 ft 332 kts
2026-05-07 14:52 53.08355 10.12795 16697 ft 333 kts
2026-05-07 14:52 53.10677 10.12874 16281 ft 334 kts
2026-05-07 14:52 53.13006 10.12952 15857 ft 335 kts 360°
2026-05-07 14:53 53.15334 10.13028 15451 ft 335 kts
2026-05-07 14:53 53.17671 10.13104 15032 ft 336 kts
2026-05-07 14:53 53.20004 10.13176 14614 ft 335 kts
2026-05-07 14:53 53.22342 10.13248 14194 ft 335 kts
2026-05-07 14:54 53.24659 10.13320 13804 ft 332 kts
2026-05-07 14:54 53.26962 10.13398 13324 ft 326 kts
2026-05-07 14:54 53.29193 10.13478 12925 ft 317 kts
2026-05-07 14:54 53.31387 10.13557 12523 ft 314 kts
2026-05-07 14:55 53.33539 10.13634 12120 ft 312 kts
2026-05-07 14:55 53.35729 10.13708 11709 ft 310 kts
2026-05-07 14:55 53.37868 10.13482 11300 ft 308 kts 348°
2026-05-07 14:55 53.39851 10.12320 10905 ft 306 kts 332°
2026-05-07 14:56 53.41565 10.10289 10660 ft 299 kts 316°
2026-05-07 14:56 53.42977 10.07755 10405 ft 295 kts 312°
2026-05-07 14:56 53.44345 10.05224 10142 ft 291 kts 312°
2026-05-07 14:56 53.45700 10.02712 9875 ft 287 kts 312°
2026-05-07 14:57 53.46996 10.00306 9683 ft 269 kts 313°
2026-05-07 14:57 53.48186 9.97960 9528 ft 259 kts 302°
2026-05-07 14:57 53.48797 9.95183 9337 ft 253 kts 276°
2026-05-07 14:57 53.48621 9.92260 9204 ft 253 kts 250°
2026-05-07 14:58 53.47726 9.89751 9080 ft 252 kts 229°
2026-05-07 14:58 53.46592 9.87489 8991 ft 254 kts 230°
2026-05-07 14:58 53.45453 9.85210 8861 ft 254 kts 230°
2026-05-07 14:58 53.44319 9.82937 8728 ft 255 kts 230°
2026-05-07 14:59 53.43180 9.80654 8591 ft 255 kts 230°
2026-05-07 14:59 53.42047 9.78387 8457 ft 254 kts 229°
2026-05-07 14:59 53.40913 9.76118 8316 ft 254 kts 230°
2026-05-07 14:59 53.39780 9.73847 7790 ft 254 kts 230°
2026-05-07 15:00 53.38911 9.71288 7112 ft 254 kts 257°
2026-05-07 15:00 53.38841 9.68422 6527 ft 250 kts 285°
2026-05-07 15:00 53.39565 9.65797 5870 ft 246 kts 311°
2026-05-07 15:00 53.40871 9.63906 5534 ft 257 kts 334°
2026-05-07 15:01 53.42485 9.63014 5419 ft 236 kts 356°
2026-05-07 15:01 53.44064 9.63136 5273 ft 221 kts 16°
2026-05-07 15:01 53.45445 9.64081 5064 ft 211 kts 35°
2026-05-07 15:01 53.46530 9.65666 4812 ft 204 kts 51°
2026-05-07 15:02 53.47441 9.67490 4541 ft 203 kts 51°
2026-05-07 15:02 53.48348 9.69299 4264 ft 202 kts 51°
2026-05-07 15:02 53.49252 9.71102 3988 ft 201 kts 51°
2026-05-07 15:02 53.50149 9.72896 3713 ft 201 kts 51°
2026-05-07 15:03 53.51046 9.74691 3444 ft 200 kts 51°
2026-05-07 15:03 53.51943 9.76488 3173 ft 201 kts 51°
2026-05-07 15:03 53.52835 9.78278 2899 ft 200 kts 51°
2026-05-07 15:03 53.53727 9.80067 2623 ft 199 kts 51°
2026-05-07 15:04 53.54616 9.81852 2356 ft 199 kts 51°
2026-05-07 15:04 53.55499 9.83624 2074 ft 194 kts 51°
2026-05-07 15:04 53.56321 9.85275 1849 ft 177 kts 52°
2026-05-07 15:04 53.57062 9.86763 1620 ft 153 kts 52°
2026-05-07 15:05 53.57700 9.88073 1412 ft 140 kts 53°
2026-05-07 15:05 53.58287 9.89311 1137 ft 130 kts 52°
2026-05-07 15:05 53.58877 9.90448 1020 ft 127 kts 49°
2026-05-07 15:05 53.59470 9.91556 832 ft 125 kts 50°
2026-05-07 15:06 53.60040 9.92700 676 ft 128 kts 50°
2026-05-07 15:06 53.60590 9.93868 487 ft 126 kts 52°
2026-05-07 15:06 53.61145 9.95007 343 ft 127 kts 50°
2026-05-07 15:06 53.61717 9.96153 171 ft 126 kts 50°
2026-05-07 15:07 53.62269 9.97281 51 ft 119 kts 50°
2026-05-07 15:07 53.62724 9.98199 51 ft 80 kts 50°
2026-05-07 15:07 53.62987 9.98727 49 ft 47 kts 50°
2026-05-07 15:07 53.63177 9.99109 51 ft 39 kts 50°
2026-05-07 15:08 53.63289 9.99411 50 ft 27 kts 82°
2026-05-07 15:08 53.63279 9.99645 50 ft 15 kts 98°
2026-05-07 15:08 53.63304 9.99811 50 ft 16 kts 51°
2026-05-07 15:08 53.63380 9.99964 51 ft 18 kts 50°
2026-05-07 15:09 53.63413 10.00142 49 ft 17 kts 136°
2026-05-07 15:09 53.63336 10.00207 51 ft 8 kts 97°
2026-05-07 15:09 53.63332 10.00309 51 ft 9 kts 83°
2026-05-07 15:09 53.63333 10.00351 51 ft 0 kts 86°
2026-05-07 15:10 53.63333 10.00353 51 ft 0 kts 86°